Zurück zum Katalog

CZ-6A DEB

AktivPO
NORAD 60624·DEBRIS·🇨🇳 China

Gestartet Aug 6, 2024 von Taiyuan Satellite Launch Center

Loading…

Nächste Überflüge (nächste 24 Stunden)

TLE

AktuellSource: Space-Track

Epoche: Sep 14, 2026, 00:17 UTC

1 60624U 24140Z   26257.01200820  .00001301  00000-0  26119-3 0  9991
2 60624  89.0317 262.6855 0107185 307.8578  51.2971 14.57506863111623

Verfolge CZ-6A DEB in Echtzeit mit AllMySat

Download on the App Store